Hourly Data Report for September 03, 2003

SHERBROOKE A
QUEBEC

45°26'00.000" N
71°41'00.000" W
241.40 m
7028124
71610
YSC

Download Data

Hourly Data (September 2003)
Hourly Data Report for September 3, 2003
TIME
LST
Temp Definition
°C
Dew Point Definition
°C
Rel Hum Definition
%
Precip. Amount Definition
mm

Wind Dir Definition
10's deg

Wind Spd Definition
km/h
Visibility Definition
km
Stn Press Definition
kPa
Hmdx Definition


Wind Chill Definition


Weather Definition


00:00 7.6 6.9 95     0 15.0 99.37      
01:00 7.1 6.5 96   10 4 0.6 99.35      
02:00 6.7 6.1 96   9 4 4.0 99.36      
03:00 7.6 6.9 95   10 7 15.0 99.37      
04:00 7.1 6.6 97   3 4 12.9 99.37      
05:00 6.8 6.2 96   7 7 15.0 99.38      
06:00 7.2 6.7 97   6 4 15.0 99.40      
07:00 9.9 8.8 93   6 4 24.1 99.38     Mainly Clear
08:00 13.7 11.1 84   9 4 24.1 99.35     Mainly Clear
09:00 17.1 12.7 75   12 4 24.1 99.31     Mainly Clear
10:00 20.0 13.8 67   17 9 24.1 99.23     Mainly Clear
11:00 22.0 13.5 59   16 11 24.1 99.15 25   Mainly Clear
12:00 22.5 12.6 54   14 9 24.1 99.06 25   Mainly Clear
13:00 23.9 13.2 51   15 13 24.1 98.97 27   Mainly Clear
14:00 23.3 12.8 52   19 11 24.1 98.90 26   Mostly Cloudy
15:00 23.8 13.0 51   18 11 24.1 98.82 27   Mostly Cloudy
16:00 21.9 13.2 58   15 17 24.1 98.78 25   Mostly Cloudy
17:00 21.4 13.8 62   15 13 15.0 98.76 25    
18:00 19.6 13.5 68   16 7 15.0 98.74      
19:00 18.8 13.3 70   18 9 15.0 98.73      
20:00 16.2 12.3 78   23 9 15.0 98.80     Rain
21:00 15.6 13.1 85   14 7 15.0 98.74     Drizzle
22:00 15.6 12.9 84   14 9 15.0 98.66      
23:00 15.5 12.3 81   15 9 15.0 98.60      

Notes on Data Quality.

Legend

  • E = Estimated
  • M = Missing
  • NA = Not Available*
  • [empty] = Indicates an unobserved value
Date modified: